User: anonymous   Login
Location: La Comballaz
(46.3780°N, 7.0817°E)
Time: 02:49:41
(UTC+00:00)
Language:

Cosmos 841 Rocket - Orbit

View from above orbital plane
View from above orbital plane
View from above satellite
View from above satellite

Ground track
Ground track

The orbit data is extracted from the following two-line orbital elements,

1  9023U 76069B   20192.41535917 +.00000079 +00000-0 +33672-4 0  9992
2  9023 074.0413 190.9544 0016287 078.9518 281.3467 14.39657871305593
Epoch (UTC): 10 July 2020 09:58:07
Eccentricity: 0.0016287
inclination: 74.0413°
perigee height: 748 km
apogee height: 771 km
right ascension of ascending node: 190.9544°
argument of perigee: 78.9518°
revolutions per day: 14.39657871
mean anomaly at epoch: 281.3467°
orbit number at epoch: 30559

The dashed part of the orbit path shows where the satellite is in the earth's shadow,  

DLR